Location: Sihaung
(22.8641°N, 94.0549°E)
Time: 12:53:52
(UTC+00:00)

NOSS 0 Rocket - Pass Details

Date: 03 March 2021
Orbit: 936 x 954 km, 70.0° (Epoch: 16 April)

Event Time Altitude Azimuth Distance (km) Brightness Sun altitude
Rises 13:34:25 0° 189° (S) 3,587 7.0 -25.3°
Reaches altitude 10° 13:36:58 10° 185° (S) 2,642 6.3 -25.9°
Enters shadow 13:41:18 45° 162° (SSE) 1,254 4.3 -26.9°
